Time,TemperatureF,DewpointF,PressureIn,WindDirection,WindDirectionDegrees,WindSpeedMPH,WindSpeedGustMPH,Humidity,HourlyPrecipIn,Conditions,Clouds,dailyrainin,SoftwareType,DateUTC
2013-06-25 00:00:00,68.0,60.2,29.99,NNE,13,0.0,3.0,76,0.00,,,-99.99,Wlink +4.0,2013-06-25 05:00:00,
2013-06-25 00:10:00,67.9,60.4,29.99,NNE,13,1.0,4.0,77,0.00,,,-99.99,Wlink +4.0,2013-06-25 05:10:00,
2013-06-25 00:20:00,67.6,60.5,29.98,NNE,13,0.0,4.0,78,0.00,,,-99.99,Wlink +4.0,2013-06-25 05:20:00,
2013-06-25 00:30:00,67.3,60.2,29.98,NNE,19,1.0,4.0,78,0.00,,,-99.99,Wlink +4.0,2013-06-25 05:30:00,
2013-06-25 00:40:00,67.1,60.7,29.98,NNE,18,0.0,4.0,80,0.00,,,-99.99,Wlink +4.0,2013-06-25 05:40:00,
2013-06-25 00:50:00,66.8,60.1,29.98,NNE,15,1.0,4.0,79,0.00,,,-99.99,Wlink +4.0,2013-06-25 05:50:00,
2013-06-25 01:00:00,66.6,60.2,29.98,NNE,15,0.0,4.0,80,0.00,,,-99.99,Wlink +4.0,2013-06-25 06:00:00,
2013-06-25 01:10:00,66.5,60.1,29.98,NNE,14,0.0,3.0,80,0.00,,,-99.99,Wlink +4.0,2013-06-25 06:10:00,
2013-06-25 01:20:00,66.1,59.8,29.98,North,8,0.0,3.0,80,0.00,,,-99.99,Wlink +4.0,2013-06-25 06:20:00,
2013-06-25 01:30:00,66.0,59.7,29.98,North,9,0.0,3.0,80,0.00,,,-99.99,Wlink +4.0,2013-06-25 06:30:00,
2013-06-25 01:40:00,66.0,60.0,29.97,North,9,0.0,3.0,81,0.00,,,-99.99,Wlink +4.0,2013-06-25 06:40:00,
2013-06-25 01:50:00,65.7,59.7,29.97,North,9,0.0,3.0,81,0.00,,,-99.99,Wlink +4.0,2013-06-25 06:50:00,
2013-06-25 02:00:00,65.5,59.5,29.98,NNE,28,0.0,1.0,81,0.00,,,-99.99,Wlink +4.0,2013-06-25 07:00:00,
2013-06-25 02:10:00,65.3,59.3,29.98,NNE,23,0.0,3.0,81,0.00,,,-99.99,Wlink +4.0,2013-06-25 07:10:00,
2013-06-25 02:20:00,65.6,59.6,29.97,NNE,19,0.0,3.0,81,0.00,,,-99.99,Wlink +4.0,2013-06-25 07:20:00,
2013-06-25 02:30:00,65.7,60.1,29.97,NNE,16,0.0,4.0,82,0.00,,,-99.99,Wlink +4.0,2013-06-25 07:30:00,
2013-06-25 02:40:00,65.6,59.6,29.96,NNE,19,0.0,4.0,81,0.00,,,-99.99,Wlink +4.0,2013-06-25 07:40:00,
2013-06-25 02:50:00,65.5,59.9,29.96,NNE,20,0.0,4.0,82,0.00,,,-99.99,Wlink +4.0,2013-06-25 07:50:00,
2013-06-25 03:00:00,65.5,59.9,29.96,NNE,19,2.0,7.0,82,0.00,,,-99.99,Wlink +4.0,2013-06-25 08:00:00,
2013-06-25 03:10:00,65.6,60.0,29.96,North,11,2.0,7.0,82,0.00,,,-99.99,Wlink +4.0,2013-06-25 08:10:00,
2013-06-25 03:20:00,65.6,60.0,29.96,North,10,1.0,8.0,82,0.00,,,-99.99,Wlink +4.0,2013-06-25 08:20:00,
2013-06-25 03:30:00,65.7,60.1,29.97,North,10,0.0,8.0,82,0.00,,,-99.99,Wlink +4.0,2013-06-25 08:30:00,
2013-06-25 03:40:00,65.6,60.0,29.97,North,10,3.0,8.0,82,0.00,,,-99.99,Wlink +4.0,2013-06-25 08:40:00,
2013-06-25 03:50:00,65.5,59.9,29.97,North,10,0.0,8.0,82,0.00,,,-99.99,Wlink +4.0,2013-06-25 08:50:00,
2013-06-25 04:00:00,65.5,60.2,29.97,NNE,13,0.0,8.0,83,0.00,,,-99.99,Wlink +4.0,2013-06-25 09:00:00,
2013-06-25 04:10:00,65.4,59.8,29.96,NNE,21,0.0,8.0,82,0.00,,,-99.99,Wlink +4.0,2013-06-25 09:10:00,
2013-06-25 04:20:00,65.0,59.7,29.96,NNE,18,0.0,8.0,83,0.00,,,-99.99,Wlink +4.0,2013-06-25 09:20:00,
2013-06-25 04:30:00,64.9,59.6,29.96,NNE,21,0.0,7.0,83,0.00,,,-99.99,Wlink +4.0,2013-06-25 09:30:00,
2013-06-25 04:40:00,64.9,59.6,29.96,NNE,23,1.0,7.0,83,0.00,,,-99.99,Wlink +4.0,2013-06-25 09:40:00,
2013-06-25 04:50:00,65.0,59.7,29.96,NNE,26,0.0,7.0,83,0.00,,,-99.99,Wlink +4.0,2013-06-25 09:50:00,
2013-06-25 05:00:00,64.9,60.0,29.95,NNE,24,0.0,4.0,84,0.00,,,-99.99,Wlink +4.0,2013-06-25 10:00:00,
2013-06-25 05:10:00,64.9,60.0,29.95,NNE,27,0.0,4.0,84,0.00,,,-99.99,Wlink +4.0,2013-06-25 10:10:00,
2013-06-25 05:20:00,64.7,59.8,29.95,NNE,27,0.0,4.0,84,0.00,,,-99.99,Wlink +4.0,2013-06-25 10:20:00,
2013-06-25 05:30:00,64.7,59.8,29.95,NNE,22,0.0,4.0,84,0.00,,,-99.99,Wlink +4.0,2013-06-25 10:30:00,
2013-06-25 05:40:00,64.7,59.8,29.95,NNE,23,1.0,3.0,84,0.00,,,-99.99,Wlink +4.0,2013-06-25 10:40:00,
2013-06-25 05:50:00,64.4,59.5,29.95,NNE,25,0.0,3.0,84,0.00,,,-99.99,Wlink +4.0,2013-06-25 10:50:00,
2013-06-25 06:00:00,64.4,59.5,29.94,NNE,29,0.0,3.0,84,0.00,,,-99.99,Wlink +4.0,2013-06-25 11:00:00,
2013-06-25 06:10:00,64.2,59.3,29.93,NNE,20,0.0,3.0,84,0.00,,,-99.99,Wlink +4.0,2013-06-25 11:10:00,
2013-06-25 06:20:00,64.2,59.3,29.94,NNE,18,0.0,3.0,84,0.00,,,-99.99,Wlink +4.0,2013-06-25 11:20:00,
2013-06-25 06:30:00,64.4,59.8,29.94,NNE,15,2.0,3.0,85,0.00,,,-99.99,Wlink +4.0,2013-06-25 11:30:00,
2013-06-25 06:40:00,64.6,60.0,29.94,North,10,0.0,3.0,85,0.00,,,-99.99,Wlink +4.0,2013-06-25 11:40:00,
2013-06-25 06:50:00,64.9,60.3,29.95,NNE,12,0.0,3.0,85,0.00,,,-99.99,Wlink +4.0,2013-06-25 11:50:00,
2013-06-25 07:00:00,65.0,60.1,29.96,North,9,0.0,3.0,84,0.00,,,-99.99,Wlink +4.0,2013-06-25 12:00:00,
2013-06-25 07:10:00,65.4,60.4,29.97,North,10,0.0,5.0,84,0.00,,,-99.99,Wlink +4.0,2013-06-25 12:10:00,
2013-06-25 07:20:00,65.7,60.7,29.97,North,8,1.0,5.0,84,0.00,,,-99.99,Wlink +4.0,2013-06-25 12:20:00,
2013-06-25 07:30:00,66.0,61.0,29.96,North,9,0.0,5.0,84,0.00,,,-99.99,Wlink +4.0,2013-06-25 12:30:00,
2013-06-25 07:40:00,66.5,61.2,29.96,North,8,1.0,6.0,83,0.00,,,-99.99,Wlink +4.0,2013-06-25 12:40:00,
2013-06-25 07:50:00,67.1,62.1,29.96,North,11,2.0,6.0,84,0.00,,,-99.99,Wlink +4.0,2013-06-25 12:50:00,
2013-06-25 08:00:00,68.0,62.7,29.96,North,7,4.0,9.0,83,0.00,,,-99.99,Wlink +4.0,2013-06-25 13:00:00,
2013-06-25 08:10:00,68.8,63.1,29.96,North,11,3.0,9.0,82,0.00,,,-99.99,Wlink +4.0,2013-06-25 13:10:00,
2013-06-25 08:20:00,70.3,63.5,29.95,North,8,0.0,9.0,79,0.00,,,-99.99,Wlink +4.0,2013-06-25 13:20:00,
2013-06-25 08:30:00,70.8,63.2,29.95,ENE,58,2.0,9.0,77,0.00,,,-99.99,Wlink +4.0,2013-06-25 13:30:00,
2013-06-25 08:40:00,71.3,63.0,29.95,North,8,5.0,9.0,75,0.00,,,-99.99,Wlink +4.0,2013-06-25 13:40:00,
2013-06-25 08:50:00,71.8,63.1,29.95,North,11,0.0,9.0,74,0.00,,,-99.99,Wlink +4.0,2013-06-25 13:50:00,
2013-06-25 09:00:00,72.0,62.5,29.95,North,8,3.0,8.0,72,0.00,,,-99.99,Wlink +4.0,2013-06-25 14:00:00,
2013-06-25 09:10:00,73.2,63.6,29.95,SE,126,4.0,9.0,72,0.00,,,-99.99,Wlink +4.0,2013-06-25 14:10:00,
2013-06-25 09:20:00,74.3,63.9,29.95,South,191,0.0,9.0,70,0.00,,,-99.99,Wlink +4.0,2013-06-25 14:20:00,
2013-06-25 09:30:00,74.7,63.0,29.95,ESE,102,3.0,9.0,67,0.00,,,-99.99,Wlink +4.0,2013-06-25 14:30:00,
2013-06-25 09:40:00,75.1,63.4,29.94,SE,145,3.0,9.0,67,0.00,,,-99.99,Wlink +4.0,2013-06-25 14:40:00,
2013-06-25 09:50:00,75.6,63.0,29.94,East,90,2.0,9.0,65,0.00,,,-99.99,Wlink +4.0,2013-06-25 14:50:00,
2013-06-25 10:00:00,76.0,63.8,29.95,SSE,163,2.0,9.0,66,0.00,,,-99.99,Wlink +4.0,2013-06-25 15:00:00,
2013-06-25 10:10:00,76.3,63.7,29.94,ESE,110,5.0,8.0,65,0.00,,,-99.99,Wlink +4.0,2013-06-25 15:10:00,
2013-06-25 10:20:00,76.3,63.2,29.94,SE,133,3.0,8.0,64,0.00,,,-99.99,Wlink +4.0,2013-06-25 15:20:00,
2013-06-25 10:30:00,76.5,63.0,29.94,SE,139,5.0,8.0,63,0.00,,,-99.99,Wlink +4.0,2013-06-25 15:30:00,
2013-06-25 10:40:00,77.2,63.2,29.94,SSE,155,2.0,9.0,62,0.00,,,-99.99,Wlink +4.0,2013-06-25 15:40:00,
2013-06-25 10:50:00,77.2,62.7,29.94,South,181,6.0,9.0,61,0.00,,,-99.99,Wlink +4.0,2013-06-25 15:50:00,
2013-06-25 11:00:00,77.8,63.3,29.94,SE,126,4.0,9.0,61,0.00,,,-99.99,Wlink +4.0,2013-06-25 16:00:00,
2013-06-25 11:10:00,78.2,62.7,29.93,ESE,102,3.0,9.0,59,0.00,,,-99.99,Wlink +4.0,2013-06-25 16:10:00,
2013-06-25 11:20:00,78.0,63.0,29.93,South,172,1.0,9.0,60,0.00,,,-99.99,Wlink +4.0,2013-06-25 16:20:00,
2013-06-25 11:30:00,79.1,63.1,29.93,ESE,112,2.0,9.0,58,0.00,,,-99.99,Wlink +4.0,2013-06-25 16:30:00,
2013-06-25 11:40:00,79.3,62.8,29.94,ESE,112,1.0,10.0,57,0.00,,,-99.99,Wlink +4.0,2013-06-25 16:40:00,
2013-06-25 11:50:00,79.3,62.8,29.94,ESE,116,5.0,10.0,57,0.00,,,-99.99,Wlink +4.0,2013-06-25 16:50:00,
2013-06-25 12:00:00,79.3,63.3,29.94,East,91,4.0,10.0,58,0.00,,,-99.99,Wlink +4.0,2013-06-25 17:00:00,
2013-06-25 12:10:00,80.0,63.4,29.95,SE,125,2.0,10.0,57,0.00,,,-99.99,Wlink +4.0,2013-06-25 17:10:00,
2013-06-25 12:20:00,80.7,64.1,29.95,ESE,112,5.0,10.0,57,0.00,,,-99.99,Wlink +4.0,2013-06-25 17:20:00,
2013-06-25 12:30:00,80.6,63.5,29.94,ESE,119,3.0,11.0,56,0.00,,,-99.99,Wlink +4.0,2013-06-25 17:30:00,
2013-06-25 12:40:00,80.7,62.5,29.94,SE,124,3.0,11.0,54,0.00,,,-99.99,Wlink +4.0,2013-06-25 17:40:00,
2013-06-25 12:50:00,80.9,63.2,29.94,SE,127,4.0,12.0,55,0.00,,,-99.99,Wlink +4.0,2013-06-25 17:50:00,
2013-06-25 13:00:00,81.1,64.4,29.94,ESE,115,5.0,13.0,57,0.00,,,-99.99,Wlink +4.0,2013-06-25 18:00:00,
2013-06-25 13:10:00,80.5,63.9,29.94,SE,134,5.0,13.0,57,0.00,,,-99.99,Wlink +4.0,2013-06-25 18:10:00,
2013-06-25 13:20:00,80.9,64.8,29.93,SE,142,1.0,13.0,58,0.00,,,-99.99,Wlink +4.0,2013-06-25 18:20:00,
2013-06-25 13:30:00,80.3,65.2,29.93,SE,142,2.0,13.0,60,0.00,,,-99.99,Wlink +4.0,2013-06-25 18:30:00,
2013-06-25 13:40:00,80.7,65.5,29.93,SSW,195,0.0,13.0,60,0.00,,,-99.99,Wlink +4.0,2013-06-25 18:40:00,
2013-06-25 13:50:00,81.4,65.2,29.93,SE,132,2.0,13.0,58,0.00,,,-99.99,Wlink +4.0,2013-06-25 18:50:00,
2013-06-25 14:00:00,81.0,65.3,29.93,SE,143,1.0,13.0,59,0.00,,,-99.99,Wlink +4.0,2013-06-25 19:00:00,
2013-06-25 14:10:00,81.4,66.2,29.92,South,178,3.0,13.0,60,0.00,,,-99.99,Wlink +4.0,2013-06-25 19:10:00,
2013-06-25 14:20:00,81.4,65.2,29.92,East,99,3.0,13.0,58,0.00,,,-99.99,Wlink +4.0,2013-06-25 19:20:00,
2013-06-25 14:30:00,81.5,66.3,29.92,ESE,117,2.0,13.0,60,0.00,,,-99.99,Wlink +4.0,2013-06-25 19:30:00,
2013-06-25 14:40:00,81.5,65.3,29.91,ESE,114,2.0,13.0,58,0.00,,,-99.99,Wlink +4.0,2013-06-25 19:40:00,
2013-06-25 14:50:00,81.5,64.8,29.92,SE,137,1.0,9.0,57,0.00,,,-99.99,Wlink +4.0,2013-06-25 19:50:00,
2013-06-25 15:00:00,82.1,65.9,29.92,South,176,2.0,9.0,58,0.00,,,-99.99,Wlink +4.0,2013-06-25 20:00:00,
2013-06-25 15:10:00,82.1,65.9,29.92,South,190,2.0,10.0,58,0.00,,,-99.99,Wlink +4.0,2013-06-25 20:10:00,
2013-06-25 15:20:00,83.1,66.3,29.92,SE,144,2.0,10.0,57,0.00,,,-99.99,Wlink +4.0,2013-06-25 20:20:00,
2013-06-25 15:30:00,83.8,66.4,29.91,ESE,120,6.0,10.0,56,0.00,,,-99.99,Wlink +4.0,2013-06-25 20:30:00,
2013-06-25 15:40:00,83.2,66.9,29.91,SSE,147,2.0,10.0,58,0.00,,,-99.99,Wlink +4.0,2013-06-25 20:40:00,
2013-06-25 15:50:00,83.4,66.6,29.91,SSE,162,2.0,10.0,57,0.00,,,-99.99,Wlink +4.0,2013-06-25 20:50:00,
2013-06-25 16:00:00,83.2,66.9,29.91,SSE,153,1.0,10.0,58,0.00,,,-99.99,Wlink +4.0,2013-06-25 21:00:00,
2013-06-25 16:10:00,83.2,66.9,29.91,ESE,120,2.0,9.0,58,0.00,,,-99.99,Wlink +4.0,2013-06-25 21:10:00,
2013-06-25 16:20:00,83.8,67.5,29.91,SE,139,4.0,9.0,58,0.00,,,-99.99,Wlink +4.0,2013-06-25 21:20:00,
2013-06-25 16:30:00,83.4,67.1,29.91,SSE,157,3.0,9.0,58,0.00,,,-99.99,Wlink +4.0,2013-06-25 21:30:00,
2013-06-25 16:40:00,82.6,67.3,29.91,ESE,114,2.0,9.0,60,0.00,,,-99.99,Wlink +4.0,2013-06-25 21:40:00,
2013-06-25 16:50:00,81.6,66.9,29.91,SE,138,2.0,9.0,61,0.00,,,-99.99,Wlink +4.0,2013-06-25 21:50:00,
2013-06-25 17:00:00,81.1,66.9,29.91,East,99,2.0,9.0,62,0.00,,,-99.99,Wlink +4.0,2013-06-25 22:00:00,
2013-06-25 17:10:00,80.7,66.9,29.91,South,190,3.0,9.0,63,0.00,,,-99.99,Wlink +4.0,2013-06-25 22:10:00,
2013-06-25 17:20:00,80.5,66.3,29.91,East,101,0.0,9.0,62,0.00,,,-99.99,Wlink +4.0,2013-06-25 22:20:00,
2013-06-25 17:30:00,80.5,67.2,29.91,SE,142,4.0,8.0,64,0.00,,,-99.99,Wlink +4.0,2013-06-25 22:30:00,
2013-06-25 17:40:00,80.5,67.7,29.90,SSE,159,2.0,8.0,65,0.00,,,-99.99,Wlink +4.0,2013-06-25 22:40:00,
2013-06-25 17:50:00,80.7,67.9,29.90,ESE,116,2.0,8.0,65,0.00,,,-99.99,Wlink +4.0,2013-06-25 22:50:00,
2013-06-25 18:00:00,81.1,68.2,29.90,SE,125,3.0,8.0,65,0.00,,,-99.99,Wlink +4.0,2013-06-25 23:00:00,
2013-06-25 18:10:00,81.3,68.0,29.90,SE,125,0.0,8.0,64,0.00,,,-99.99,Wlink +4.0,2013-06-25 23:10:00,
2013-06-25 18:20:00,81.6,67.8,29.90,ESE,113,1.0,8.0,63,0.00,,,-99.99,Wlink +4.0,2013-06-25 23:20:00,
2013-06-25 18:30:00,81.8,68.4,29.89,South,176,2.0,8.0,64,0.00,,,-99.99,Wlink +4.0,2013-06-25 23:30:00,
2013-06-25 18:40:00,81.8,68.4,29.90,SE,140,2.0,8.0,64,0.00,,,-99.99,Wlink +4.0,2013-06-25 23:40:00,
2013-06-25 18:50:00,81.8,68.4,29.89,East,101,0.0,8.0,64,0.00,,,-99.99,Wlink +4.0,2013-06-25 23:50:00,
2013-06-25 19:00:00,82.0,68.6,29.89,ESE,115,1.0,8.0,64,0.00,,,-99.99,Wlink +4.0,2013-06-26 00:00:00,
2013-06-25 19:10:00,81.6,68.3,29.89,ESE,120,2.0,7.0,64,0.00,,,-99.99,Wlink +4.0,2013-06-26 00:10:00,
2013-06-25 19:20:00,81.6,68.7,29.89,ESE,115,2.0,7.0,65,0.00,,,-99.99,Wlink +4.0,2013-06-26 00:20:00,
2013-06-25 19:30:00,81.5,68.6,29.89,ESE,122,2.0,7.0,65,0.00,,,-99.99,Wlink +4.0,2013-06-26 00:30:00,
2013-06-25 19:40:00,81.5,68.6,29.89,ESE,109,3.0,7.0,65,0.00,,,-99.99,Wlink +4.0,2013-06-26 00:40:00,
2013-06-25 19:50:00,81.1,68.7,29.89,East,97,2.0,7.0,66,0.00,,,-99.99,Wlink +4.0,2013-06-26 00:50:00,
2013-06-25 20:00:00,80.7,68.3,29.89,ESE,110,4.0,7.0,66,0.00,,,-99.99,Wlink +4.0,2013-06-26 01:00:00,
2013-06-25 20:10:00,80.5,68.1,29.89,East,93,0.0,6.0,66,0.00,,,-99.99,Wlink +4.0,2013-06-26 01:10:00,
2013-06-25 20:20:00,80.4,68.4,29.88,East,95,1.0,6.0,67,0.00,,,-99.99,Wlink +4.0,2013-06-26 01:20:00,
2013-06-25 20:30:00,80.2,68.7,29.88,ESE,121,0.0,6.0,68,0.00,,,-99.99,Wlink +4.0,2013-06-26 01:30:00,
2013-06-25 20:40:00,80.2,68.3,29.88,ESE,114,2.0,6.0,67,0.00,,,-99.99,Wlink +4.0,2013-06-26 01:40:00,
2013-06-25 20:50:00,80.0,68.5,29.88,ESE,110,4.0,6.0,68,0.00,,,-99.99,Wlink +4.0,2013-06-26 01:50:00,
2013-06-25 21:00:00,79.6,68.5,29.88,SE,132,0.0,6.0,69,0.00,,,-99.99,Wlink +4.0,2013-06-26 02:00:00,
2013-06-25 21:10:00,79.2,68.2,29.88,SE,128,0.0,6.0,69,0.00,,,-99.99,Wlink +4.0,2013-06-26 02:10:00,
2013-06-25 21:20:00,78.9,68.7,29.87,ESE,122,1.0,6.0,71,0.00,,,-99.99,Wlink +4.0,2013-06-26 02:20:00,
2013-06-25 21:30:00,78.5,68.3,29.88,SE,124,0.0,6.0,71,0.00,,,-99.99,Wlink +4.0,2013-06-26 02:30:00,
2013-06-25 21:40:00,78.2,68.4,29.87,East,86,1.0,6.0,72,0.00,,,-99.99,Wlink +4.0,2013-06-26 02:40:00,
2013-06-25 21:50:00,77.8,68.1,29.88,SE,139,0.0,6.0,72,0.00,,,-99.99,Wlink +4.0,2013-06-26 02:50:00,
2013-06-25 22:00:00,77.6,68.3,29.88,East,92,1.0,6.0,73,0.00,,,-99.99,Wlink +4.0,2013-06-26 03:00:00,
2013-06-25 22:10:00,77.4,68.5,29.88,East,91,0.0,6.0,74,0.00,,,-99.99,Wlink +4.0,2013-06-26 03:10:00,
2013-06-25 22:20:00,77.3,68.4,29.88,East,88,0.0,6.0,74,0.00,,,-99.99,Wlink +4.0,2013-06-26 03:20:00,
2013-06-25 22:30:00,77.1,68.6,29.88,East,89,0.0,6.0,75,0.00,,,-99.99,Wlink +4.0,2013-06-26 03:30:00,
2013-06-25 22:40:00,76.7,68.6,29.88,SE,142,1.0,6.0,76,0.00,,,-99.99,Wlink +4.0,2013-06-26 03:40:00,
2013-06-25 22:50:00,76.6,68.5,29.87,ESE,112,2.0,6.0,76,0.00,,,-99.99,Wlink +4.0,2013-06-26 03:50:00,
2013-06-25 23:00:00,76.4,68.7,29.87,ESE,102,2.0,6.0,77,0.00,,,-99.99,Wlink +4.0,2013-06-26 04:00:00,
2013-06-25 23:10:00,76.1,68.4,29.87,East,96,0.0,6.0,77,0.00,,,-99.99,Wlink +4.0,2013-06-26 04:10:00,
2013-06-25 23:20:00,75.9,68.6,29.87,ESE,122,3.0,6.0,78,0.00,,,-99.99,Wlink +4.0,2013-06-26 04:20:00,
2013-06-25 23:30:00,75.7,68.4,29.88,ESE,119,0.0,6.0,78,0.00,,,-99.99,Wlink +4.0,2013-06-26 04:30:00,
2013-06-25 23:40:00,75.6,68.3,29.87,ESE,103,0.0,6.0,78,0.00,,,-99.99,Wlink +4.0,2013-06-26 04:40:00,
2013-06-25 23:50:00,75.4,68.4,29.87,ESE,109,1.0,6.0,79,0.00,,,-99.99,Wlink +4.0,2013-06-26 04:50:00,